Hourly Data Report for January 07, 2022

RANKIN INLET A
NUNAVUT
Current Station Operator: NAVCAN

62°48'38.000" N
92°06'53.000" W
32.30 m
2303405
71083
YRT

Download Data

Hourly Data (January 2022)
Hourly Data Report for January 7, 2022
TIME
LST
Temp Definition
°C
Dew Point Definition
°C
Rel Hum Definition
%
Precip. Amount Definition
mm

Wind Dir Definition
10's deg

Wind Spd Definition
km/h
Visibility Definition
km
Stn Press Definition
kPa
Hmdx Definition


Wind Chill Definition


Weather Definition


00:00 -26.4 -30.1 72   22 14 9.7 99.30   -37 Snow,Ice Crystals
01:00 -25.8 -29.4 72   22 16 9.7 99.27   -37 Snow,Ice Crystals
02:00 -25.2 -28.8 72   23 16 9.7 99.26   -36 Snow,Ice Crystals
03:00 -24.5 -28.1 72   25 15 8.1 99.24   -35 Snow,Ice Crystals
04:00 -24.4 -28.1 72   25 15 8.1 99.23   -35 Snow,Ice Crystals
05:00 -25.4 -29.1 72   25 15 9.7 99.23   -36 Snow,Ice Crystals
06:00 -26.4 -30.0 72   24 13 9.7 99.22   -36 Snow,Ice Crystals
07:00 -26.4 -30.1 72   25 10 9.7 99.20   -35 Snow,Ice Crystals
08:00 -27.0 -30.7 72   25 13 16.1 99.21   -37 Ice Crystals
09:00 -26.5 -30.1 72   26 8 16.1 99.24   -34 Ice Crystals
10:00 -26.5 -30.2 72   27 13 16.1 99.26   -36 Ice Crystals
11:00 -26.5 -30.1 72   29 16 16.1 99.31   -37 Ice Crystals
12:00 -26.4 -30.1 72   30 14 24.1 99.33   -37 Snow
13:00 -27.5 -31.3 71   29 16 24.1 99.37   -39 LegendNANA
14:00 -28.0 -31.9 70   31 16 24.1 99.44   -39 LegendNANA
15:00 -28.2 -32.1 70   32 16 24.1 99.53   -40 Mostly Cloudy
16:00 -27.8 -31.7 70   34 9 24.1 99.57   -36 LegendNANA
17:00 -28.0 -31.8 70   28 14 24.1 99.64   -39 LegendNANA
18:00 -28.3 -32.2 70   31 13 24.1 99.69   -39 Mostly Cloudy
19:00 -28.3 -32.2 70   30 16 24.1 99.69   -40 LegendNANA
20:00 -29.1 -32.9 70   31 14 24.1 99.71   -40 LegendNANA
21:00 -29.4 -33.2 70   33 15 24.1 99.76   -41 Mainly Clear
22:00 -29.7 -33.5 70   36 11 24.1 99.79   -39 LegendNANA
23:00 -30.5 -34.3 70   36 8 24.1 99.85   -39 LegendNANA

Notes on Data Quality.

Legend

  • E = Estimated
  • M = Missing
  • NA = Not Available*
  • [empty] = Indicates an unobserved value
Date modified: